Flag for Turkey Weather past 2 weeks in Bursa, Turkey

Now
83 °F

Sunny.


Feels Like: 86 °F
Forecast: 64 / 95 °F
Wind: 1 mph from Northeast

Location: Bursa

Current Time: Jul 30, 2015 at 10:15:49 AM

Latest Report: Jul 30, 2015 at 9:00 AM


Visibility: 9 mi

Pressure: 29.77 "Hg

Humidity: 57%

Dew point: 67 °F

Location of BursaLocation

Historic Weather in Bursa — Graph

°F

Bursa temperature yesterday

Maximum temperature yesterday: 101 °F (at 4:00 PM)
Minimum temperature yesterday: 70 °F (at 6:00 AM)
Average temperature yesterday: 90 °F

Past Weeks' High & Low Weather Summary

 TemperatureHumidityPressure
High101 °F (Jul 29, 4:00 PM)95% (Jul 21, 5:00 AM)30.08 "Hg (Jul 21, 5:00 AM)
Low62 °F (Jul 16, 6:00 AM)26% (Jul 19, 3:00 PM)29.68 "Hg (Jul 27, 7:00 PM)
Average81 °F55%29.88 "Hg
* Reported Jul 15 9:00 AM — Jul 30 9:00 AM, Bursa, Weather by CustomWeather, © 2015

Note: Actual official high and low records may vary slightly from our data, if they occured in-between our weather recording intervals... More about our weather records

Advertising

Bursa weather history for previous 24 hours

 ConditionsComfort  
Time TempWeatherWind HumidityBarometerVisibility
9:00 AM
Thu, Jul 30
83 °FSunny.1 mph57%29.77 "Hg9 mi
6:00 AM72 °FSunny.No wind83%29.75 "Hg9 mi
3:00 AM78 °FClear.2 mph70%29.76 "Hg9 mi
12:00 AM83 °FClear.3 mph60%29.75 "Hg9 mi
9:00 PM
Wed, Jul 29
89 °FClear.1 mph49%29.72 "Hg9 mi
8:00 PM93 °FSunny.6 mph44%29.71 "Hg9 mi
7:00 PM96 °FSunny.8 mph41%29.69 "Hg9 mi
6:00 PM99 °FSunny.9 mph36%29.69 "Hg12 mi
5:00 PM100 °FSunny.9 mph33%29.70 "Hg12 mi
4:00 PM101 °FSunny.9 mph33%29.71 "Hg12 mi
3:00 PM100 °FSunny.6 mph35%29.72 "Hg12 mi
2:00 PM98 °FSunny.5 mph37%29.74 "Hg12 mi
1:00 PM96 °FSunny.5 mph38%29.75 "Hg12 mi
12:00 PM94 °FSunny.6 mph39%29.76 "Hg9 mi
11:00 AM90 °FSunny.5 mph43%29.77 "Hg9 mi
10:00 AM86 °FSunny.2 mph50%29.78 "Hg9 mi
Weather by CustomWeather, © 2015

See weather overviewHow to use our weather pages